Flag for Canada Weather past 2 weeks in Greater Sudbury, Ontario, Canada

25 °F

Light snow. Overcast.

Feels Like: 18 °F
Forecast: 15 / 25 °F
Wind: 6 mph from North

Location: Sudbury

Current Time: Nov 29, 2015 at 7:38:21 AM

Latest Report: Nov 29, 2015 at 7:00 AM

Visibility: 15 mi

Pressure: 30.38 "Hg

Humidity: 93%

Dew point: 23 °F

Location of Greater SudburyLocation

Historic Weather in Greater Sudbury — Graph


Greater Sudbury temperature yesterday

Maximum temperature yesterday: 23 °F (at 3:00 PM)
Minimum temperature yesterday: 5 °F (at 8:00 AM)
Average temperature yesterday: 15 °F

Past Weeks' High & Low Weather Summary

High54 °F (Nov 18, 1:00 PM)100% (Nov 15, 9:00 AM)30.48 "Hg (Nov 15, 9:00 AM)
Low5 °F (Nov 28, 8:00 AM)42% (Nov 16, 3:00 PM)29.56 "Hg (Nov 19, 12:00 PM)
Average31 °F82%30.14 "Hg
* Reported Nov 14 6:00 AM — Nov 29 6:00 AM, Greater Sudbury, Weather by CustomWeather, © 2015

Note: Actual official high and low records may vary slightly from our data, if they occured in-between our weather recording intervals... More about our weather records


Greater Sudbury weather history for previous 24 hours

Time TempWeatherWind HumidityBarometerVisibility
6:00 AM
Sun, Nov 29
21 °FLight snow. Overcast.3 mph93%30.36 "Hg15 mi
5:00 AM21 °FOvercast.6 mph93%30.34 "Hg15 mi
4:00 AM19 °FOvercast.5 mph93%30.32 "Hg15 mi
3:00 AM19 °FOvercast.3 mph93%30.32 "Hg15 mi
2:00 AM18 °FPassing clouds.3 mph93%30.30 "Hg15 mi
1:00 AM18 °FLow clouds.6 mph93%30.30 "Hg10 mi
12:00 AM18 °FPassing clouds.7 mph93%30.30 "Hg15 mi
11:00 PM
Sat, Nov 28
18 °FPassing clouds.9 mph100%30.31 "Hg15 mi
10:00 PM18 °FClear.6 mph93%30.33 "Hg15 mi
9:00 PM18 °FClear.6 mph100%30.33 "Hg15 mi
8:00 PM21 °FClear.3 mph93%30.34 "Hg15 mi
7:00 PM19 °FClear.3 mph93%30.33 "Hg15 mi
6:00 PM21 °FPassing clouds.3 mph86%30.32 "Hg15 mi
5:00 PM21 °FPassing clouds.5 mph86%30.31 "Hg20 mi
4:00 PM23 °FScattered clouds.8 mph86%30.31 "Hg20 mi
3:00 PM23 °FPartly sunny.8 mph80%30.31 "Hg20 mi
2:00 PM21 °FPartly sunny.13 mph86%30.31 "Hg20 mi
1:00 PM19 °FPartly sunny.12 mph86%30.34 "Hg20 mi
12:47 PM19 °FPartly sunny.14 mph86%30.34 "Hg20 mi
12:00 PM18 °FPassing clouds.9 mph93%30.37 "Hg20 mi
11:00 AM14 °FPassing clouds.9 mph92%30.39 "Hg20 mi
10:00 AM12 °FPassing clouds.3 mph92%30.43 "Hg20 mi
9:00 AM9 °FPassing clouds.3 mph92%30.45 "Hg20 mi
8:00 AM5 °FPassing clouds.2 mph85%30.44 "Hg20 mi
7:00 AM9 °FIce fog.2 mph92%30.44 "Hg1 mi
Weather by CustomWeather, © 2015

See weather overviewHow to use our weather pages